sat.trackr.live / text

‹ back to catalog

KUIPER-00425

NORAD 68934 · 2026-098R

PAYLOAD ACTIVE UNKNOWN

§ Identity

Operator
Country
US
Launch date
2026-04-30
Launch site
FRGUI
Launch vehicle
Mass (kg)
RCS (m²)

External: N2YO · Heavens-Above · Gunter

§ Orbital elements

Epoch: 2026-09-20T05:14:55.072608Z

Period
97.30 min
Inclination
51.8978°
Eccentricity
0.0000770
Mean motion
14.79935667 rev/d
Perigee alt
629.0 km
Apogee alt
630.1 km
Semi-major
7,007.7 km
B*
1.4355e-4
RAAN
357.9277°
Arg perigee
102.8370°
Mean anomaly
257.2678°
Rev number
2,155

§ Raw data

KUIPER-004251 68934U 26098R   26263.21869297  .00000873  00000+0  14355-3 0  99962 68934  51.8978 357.9277 0000770 102.8370 257.2678 14.79935667 21552

JSON: /api/v1/satellites/68934 · /tle

For live sub-satellite position, see the globe view (requires WebGL).

§ Visibility from observer

Set your observer location to see the next 7 days of passes ≥ 10°. The values pass through the URL so the page stays shareable.

No JS? Fill the form by hand. The geolocation button needs JavaScript.